WMT551 EGGW-LROP

Flight info

Callsign WMT551
Flight time 2h 40m
Altitude 35000
Route MATCH Q295 BRAIN M197 REDFA DCT TACHA DCT EKSAK DCT SWALM DCT VELIS DCT OKG DCT PEPIK DCT EPARI DCT LAMIT DCT TOSVI
Aircraft A321/M-SDE1E2E3FGIJ1J4RWXYZ/LB1G1

Departure

Time 2026-05-06 14:08
Airport London Luton Airport (EGGW)

Arrival

Time 2026-05-06 16:49
Airport Bucharest Henri Coandă International Airport (LROP)
Time Latitude Longitude Altitude Speed Heading
2026-05-06 13:25 51.88089 -0.37328 508 ft 0 kts 342°
2026-05-06 14:00 51.88088 -0.37328 508 ft 1 kts 341°
2026-05-06 14:00 51.88065 -0.37316 508 ft 4 kts 341°
2026-05-06 14:00 51.88045 -0.37305 508 ft 4 kts 358°
2026-05-06 14:01 51.88024 -0.37317 508 ft 4 kts 56°
2026-05-06 14:01 51.88013 -0.37354 508 ft 4 kts 72°
2026-05-06 14:01 51.88005 -0.37394 508 ft 2 kts 72°
2026-05-06 14:01 51.88004 -0.37398 508 ft 0 kts 72°
2026-05-06 14:03 51.88006 -0.37388 508 ft 3 kts 72°
2026-05-06 14:03 51.88017 -0.37331 508 ft 8 kts 72°
2026-05-06 14:04 51.88036 -0.37240 508 ft 9 kts 72°
2026-05-06 14:04 51.88024 -0.37145 508 ft 10 kts 134°
2026-05-06 14:04 51.87955 -0.37099 509 ft 12 kts 162°
2026-05-06 14:04 51.87874 -0.37055 510 ft 12 kts 162°
2026-05-06 14:05 51.87796 -0.37015 515 ft 12 kts 162°
2026-05-06 14:05 51.87722 -0.36975 521 ft 10 kts 162°
2026-05-06 14:05 51.87656 -0.36954 524 ft 9 kts 191°
2026-05-06 14:05 51.87613 -0.37063 522 ft 15 kts 253°
2026-05-06 14:06 51.87584 -0.37232 522 ft 15 kts 255°
2026-05-06 14:06 51.87580 -0.37398 522 ft 14 kts 261°
2026-05-06 14:06 51.87512 -0.37508 521 ft 15 kts 227°
2026-05-06 14:06 51.87483 -0.37655 523 ft 14 kts 256°
2026-05-06 14:07 51.87454 -0.37827 522 ft 18 kts 255°
2026-05-06 14:07 51.87414 -0.38007 524 ft 16 kts 232°
2026-05-06 14:07 51.87316 -0.38104 522 ft 16 kts 200°
2026-05-06 14:07 51.87257 -0.38037 524 ft 12 kts 84°
2026-05-06 14:08 51.87317 -0.37687 522 ft 69 kts 74°
2026-05-06 14:08 51.87513 -0.36558 526 ft 137 kts 75°
2026-05-06 14:08 51.87812 -0.34862 961 ft 158 kts 70°
2026-05-06 14:08 51.88099 -0.33184 1957 ft 157 kts 69°
2026-05-06 14:09 51.88397 -0.31451 2433 ft 164 kts 69°
2026-05-06 14:09 51.88728 -0.29550 2660 ft 186 kts 70°
2026-05-06 14:09 51.89096 -0.27442 2837 ft 208 kts 70°
2026-05-06 14:09 51.89495 -0.25102 3237 ft 220 kts 73°
2026-05-06 14:10 51.89436 -0.22594 3813 ft 232 kts 107°
2026-05-06 14:10 51.88485 -0.20464 4388 ft 242 kts 142°
2026-05-06 14:10 51.86973 -0.19221 5000 ft 246 kts 155°
2026-05-06 14:10 51.85341 -0.18055 5258 ft 268 kts 155°
2026-05-06 14:11 51.83576 -0.16903 5844 ft 277 kts 158°
2026-05-06 14:11 51.81769 -0.15791 6654 ft 278 kts 155°
2026-05-06 14:11 51.80160 -0.14068 7328 ft 281 kts 133°
2026-05-06 14:11 51.79076 -0.11446 7913 ft 284 kts 108°
2026-05-06 14:12 51.78753 -0.08321 8518 ft 284 kts 85°
2026-05-06 14:12 51.78864 -0.05109 9134 ft 289 kts 84°
2026-05-06 14:12 51.78985 -0.01841 9784 ft 294 kts 84°
2026-05-06 14:12 51.79106 0.01482 10234 ft 304 kts 84°
2026-05-06 14:13 51.79235 0.05020 10364 ft 326 kts 84°
2026-05-06 14:13 51.79369 0.08784 10577 ft 344 kts 85°
2026-05-06 14:13 51.79497 0.12677 11104 ft 350 kts 85°
2026-05-06 14:13 51.79622 0.16629 11667 ft 355 kts 85°
2026-05-06 14:14 51.79746 0.20630 12267 ft 358 kts 86°
2026-05-06 14:14 51.79873 0.24661 12894 ft 361 kts 86°
2026-05-06 14:14 51.80004 0.28742 13456 ft 366 kts 86°
2026-05-06 14:14 51.80136 0.32866 14023 ft 369 kts 86°
2026-05-06 14:15 51.80268 0.37024 14578 ft 372 kts 86°
2026-05-06 14:15 51.80395 0.41225 15096 ft 376 kts 86°
2026-05-06 14:15 51.80521 0.45461 15658 ft 379 kts 86°
2026-05-06 14:15 51.80645 0.49669 16220 ft 382 kts 86°
2026-05-06 14:16 51.80772 0.53978 16743 ft 386 kts 86°
2026-05-06 14:16 51.80900 0.58320 17302 ft 389 kts 87°
2026-05-06 14:16 51.81030 0.62704 17800 ft 393 kts 86°
2026-05-06 14:16 51.81396 0.67087 18299 ft 396 kts 76°
2026-05-06 14:17 51.82061 0.71415 18790 ft 398 kts 75°
2026-05-06 14:17 51.82737 0.75766 19251 ft 401 kts 75°
2026-05-06 14:17 51.83416 0.80156 19749 ft 403 kts 75°
2026-05-06 14:17 51.84118 0.84558 20206 ft 407 kts 74°
2026-05-06 14:18 51.84892 0.88969 20697 ft 409 kts 73°
2026-05-06 14:18 51.85713 0.93393 21185 ft 412 kts 72°
2026-05-06 14:18 51.86554 0.97836 21647 ft 415 kts 72°
2026-05-06 14:18 51.87398 1.02304 22182 ft 415 kts 73°
2026-05-06 14:19 51.88234 1.06787 22661 ft 418 kts 73°
2026-05-06 14:19 51.89061 1.11312 23114 ft 420 kts 73°
2026-05-06 14:19 51.89883 1.15868 23537 ft 423 kts 73°
2026-05-06 14:19 51.90702 1.20454 23895 ft 425 kts 73°
2026-05-06 14:20 51.91524 1.25068 24260 ft 428 kts 73°
2026-05-06 14:20 51.92351 1.29710 24623 ft 430 kts 73°
2026-05-06 14:20 51.93168 1.34307 24983 ft 432 kts 74°
2026-05-06 14:20 51.93998 1.38990 25335 ft 434 kts 74°
2026-05-06 14:21 51.94830 1.43701 25687 ft 436 kts 74°
2026-05-06 14:21 51.95666 1.48432 26027 ft 438 kts 74°
2026-05-06 14:21 51.96507 1.53197 26321 ft 441 kts 74°
2026-05-06 14:21 51.97351 1.57996 26635 ft 444 kts 75°
2026-05-06 14:22 51.98197 1.62824 26965 ft 446 kts 75°
2026-05-06 14:22 51.99044 1.67673 27291 ft 448 kts 75°
2026-05-06 14:22 51.99872 1.72554 27626 ft 450 kts 76°
2026-05-06 14:22 52.00662 1.77477 27950 ft 452 kts 76°
2026-05-06 14:23 52.01423 1.82435 28267 ft 454 kts 77°
2026-05-06 14:23 52.02171 1.87422 28579 ft 456 kts 77°
2026-05-06 14:23 52.02922 1.92430 28886 ft 457 kts 77°
2026-05-06 14:23 52.03681 1.97453 29183 ft 459 kts 77°
2026-05-06 14:24 52.04450 2.02503 29467 ft 462 kts 77°
2026-05-06 14:24 52.05227 2.07572 29760 ft 464 kts 77°
2026-05-06 14:24 52.06008 2.12661 30052 ft 465 kts 77°
2026-05-06 14:24 52.06527 2.16050 30219 ft 467 kts 77°
2026-05-06 14:25 52.07310 2.21171 30473 ft 468 kts 77°
2026-05-06 14:25 52.08092 2.26316 30782 ft 468 kts 77°
2026-05-06 14:25 52.08868 2.31451 31156 ft 467 kts 77°
2026-05-06 14:25 52.09635 2.36577 31512 ft 466 kts 77°
2026-05-06 14:26 52.10397 2.41694 31863 ft 465 kts 77°
2026-05-06 14:26 52.11159 2.46803 32204 ft 464 kts 77°
2026-05-06 14:26 52.11954 2.51894 32537 ft 464 kts 75°
2026-05-06 14:26 52.12850 2.56932 32882 ft 463 kts 73°
2026-05-06 14:27 52.13818 2.61929 33200 ft 463 kts 72°
2026-05-06 14:27 52.14816 2.66903 33543 ft 462 kts 72°
2026-05-06 14:27 52.15816 2.71868 33849 ft 462 kts 72°
2026-05-06 14:27 52.16802 2.76840 34127 ft 461 kts 72°
2026-05-06 14:28 52.17764 2.81818 34354 ft 461 kts 73°
2026-05-06 14:28 52.18458 2.86906 34564 ft 460 kts 86°
2026-05-06 14:28 52.18359 2.92081 34760 ft 457 kts 102°
2026-05-06 14:28 52.17524 2.97066 34912 ft 457 kts 110°
2026-05-06 14:29 52.15566 3.06801 34947 ft 455 kts 110°
2026-05-06 14:29 52.13574 3.16574 34942 ft 455 kts 110°
2026-05-06 14:30 52.11588 3.26345 34944 ft 455 kts 110°
2026-05-06 14:30 52.09597 3.36110 34933 ft 454 kts 110°
2026-05-06 14:31 52.07597 3.45865 34932 ft 455 kts 110°
2026-05-06 14:31 52.05592 3.55615 34938 ft 455 kts 110°
2026-05-06 14:32 52.03575 3.65355 34935 ft 455 kts 110°
2026-05-06 14:32 52.01551 3.75076 34926 ft 454 kts 111°
2026-05-06 14:33 51.99522 3.84780 34939 ft 454 kts 110°
2026-05-06 14:33 51.97493 3.94473 34911 ft 454 kts 110°
2026-05-06 14:34 51.95452 4.04141 34925 ft 453 kts 110°
2026-05-06 14:34 51.93405 4.13770 34918 ft 451 kts 111°
2026-05-06 14:35 51.91358 4.23378 34915 ft 451 kts 110°
2026-05-06 14:35 51.89312 4.32964 34917 ft 450 kts 111°
2026-05-06 14:36 51.87250 4.42531 34913 ft 450 kts 111°
2026-05-06 14:36 51.85179 4.52081 34908 ft 450 kts 111°
2026-05-06 14:37 51.83105 4.61624 34910 ft 450 kts 111°
2026-05-06 14:37 51.81042 4.71088 34907 ft 450 kts 111°
2026-05-06 14:38 51.78943 4.80674 34910 ft 450 kts 111°
2026-05-06 14:38 51.76864 4.90121 34913 ft 449 kts 111°
2026-05-06 14:39 51.74763 4.99611 34909 ft 449 kts 111°
2026-05-06 14:39 51.72654 5.09091 34910 ft 449 kts 111°
2026-05-06 14:40 51.70545 5.18562 34915 ft 448 kts 111°
2026-05-06 14:40 51.68429 5.28015 34910 ft 448 kts 111°
2026-05-06 14:41 51.66296 5.37452 34901 ft 448 kts 112°
2026-05-06 14:41 51.64159 5.46885 34900 ft 448 kts 112°
2026-05-06 14:42 51.62017 5.56308 34903 ft 448 kts 112°
2026-05-06 14:42 51.59870 5.65726 34911 ft 448 kts 112°
2026-05-06 14:43 51.57716 5.75138 34909 ft 448 kts 112°
2026-05-06 14:43 51.55569 5.84469 34896 ft 448 kts 112°
2026-05-06 14:44 51.53393 5.93860 34899 ft 449 kts 112°
2026-05-06 14:45 51.50115 6.07938 34905 ft 449 kts 112°
2026-05-06 14:45 51.47921 6.17317 34903 ft 449 kts 112°
2026-05-06 14:46 51.45714 6.26682 34893 ft 449 kts 113°
2026-05-06 14:46 51.43506 6.36040 34888 ft 449 kts 112°
2026-05-06 14:47 51.41289 6.45412 34887 ft 450 kts 113°
2026-05-06 14:47 51.39065 6.54768 34874 ft 449 kts 113°
2026-05-06 14:48 51.36831 6.64106 34873 ft 449 kts 113°
2026-05-06 14:48 51.34589 6.73445 34862 ft 450 kts 114°
2026-05-06 14:49 51.32339 6.82777 34871 ft 450 kts 114°
2026-05-06 14:49 51.30081 6.92106 34873 ft 450 kts 114°
2026-05-06 14:50 51.27827 7.01378 34873 ft 450 kts 114°
2026-05-06 14:50 51.25537 7.10761 34869 ft 451 kts 114°
2026-05-06 14:51 51.23249 7.20078 34853 ft 451 kts 114°
2026-05-06 14:51 51.20971 7.29342 34841 ft 452 kts 114°
2026-05-06 14:52 51.18671 7.38672 34833 ft 452 kts 114°
2026-05-06 14:52 51.16356 7.47999 34830 ft 453 kts 114°
2026-05-06 14:53 51.14025 7.57326 34836 ft 453 kts 114°
2026-05-06 14:53 51.11689 7.66644 34823 ft 454 kts 115°
2026-05-06 14:54 51.09342 7.75970 34828 ft 454 kts 115°
2026-05-06 14:54 51.06989 7.85289 34816 ft 454 kts 115°
2026-05-06 14:55 51.04630 7.94591 34825 ft 454 kts 115°
2026-05-06 14:55 51.02262 8.03876 34816 ft 453 kts 115°
2026-05-06 14:56 50.99901 8.13087 34808 ft 453 kts 115°
2026-05-06 14:56 50.97528 8.22355 34796 ft 453 kts 115°
2026-05-06 14:57 50.95149 8.31622 34807 ft 453 kts 115°
2026-05-06 14:57 50.92757 8.40864 34807 ft 453 kts 116°
2026-05-06 14:58 50.90357 8.50102 34782 ft 453 kts 116°
2026-05-06 14:58 50.87943 8.59326 34778 ft 453 kts 116°
2026-05-06 14:59 50.85525 8.68553 34787 ft 454 kts 116°
2026-05-06 14:59 50.83097 8.77774 34788 ft 454 kts 116°
2026-05-06 15:00 50.80658 8.86988 34783 ft 454 kts 116°
2026-05-06 15:00 50.78216 8.96194 34784 ft 454 kts 116°
2026-05-06 15:01 50.75772 9.05394 34780 ft 454 kts 116°
2026-05-06 15:01 50.73315 9.14581 34782 ft 454 kts 116°
2026-05-06 15:02 50.71075 9.23913 34780 ft 457 kts 110°
2026-05-06 15:02 50.69261 9.33524 34780 ft 457 kts 110°
2026-05-06 15:03 50.67435 9.43123 34768 ft 457 kts 111°
2026-05-06 15:03 50.65592 9.52705 34776 ft 457 kts 111°
2026-05-06 15:04 50.63742 9.62279 34771 ft 456 kts 111°
2026-05-06 15:04 50.61883 9.71838 34771 ft 456 kts 111°
2026-05-06 15:05 50.60025 9.81395 34748 ft 457 kts 111°
2026-05-06 15:05 50.58179 9.90876 34757 ft 456 kts 111°
2026-05-06 15:06 50.56303 10.00422 34765 ft 456 kts 111°
2026-05-06 15:06 50.54418 10.09949 34763 ft 456 kts 111°
2026-05-06 15:07 50.52523 10.19465 34768 ft 456 kts 111°
2026-05-06 15:07 50.50622 10.28981 34752 ft 456 kts 112°
2026-05-06 15:08 50.48716 10.38492 34753 ft 457 kts 112°
2026-05-06 15:08 50.46802 10.48008 34762 ft 457 kts 112°
2026-05-06 15:09 50.44869 10.57510 34768 ft 457 kts 112°
2026-05-06 15:09 50.42809 10.66939 34773 ft 457 kts 114°
2026-05-06 15:10 50.40686 10.76327 34753 ft 457 kts 114°
2026-05-06 15:10 50.38565 10.85724 34761 ft 458 kts 114°
2026-05-06 15:11 50.36458 10.95151 34766 ft 459 kts 114°
2026-05-06 15:11 50.34350 11.04582 34762 ft 459 kts 114°
2026-05-06 15:12 50.32222 11.14014 34741 ft 460 kts 115°
2026-05-06 15:12 50.30086 11.23454 34750 ft 461 kts 115°
2026-05-06 15:13 50.27951 11.32832 34764 ft 461 kts 115°
2026-05-06 15:13 50.25788 11.42287 34779 ft 462 kts 115°
2026-05-06 15:14 50.23622 11.51724 34790 ft 462 kts 115°
2026-05-06 15:14 50.21442 11.61162 34783 ft 462 kts 115°
2026-05-06 15:15 50.19258 11.70591 34797 ft 462 kts 115°
2026-05-06 15:15 50.17069 11.80016 34804 ft 462 kts 115°
2026-05-06 15:16 50.14861 11.89434 34813 ft 462 kts 115°
2026-05-06 15:16 50.13012 11.97317 34807 ft 462 kts 115°
2026-05-06 15:17 50.10823 12.06645 34770 ft 462 kts 116°
2026-05-06 15:17 50.08608 12.16042 34766 ft 462 kts 116°
2026-05-06 15:18 50.06375 12.25425 34762 ft 462 kts 116°
2026-05-06 15:18 50.04130 12.34806 34767 ft 463 kts 116°
2026-05-06 15:19 50.01879 12.44181 34759 ft 463 kts 116°
2026-05-06 15:19 49.99616 12.53543 34760 ft 463 kts 116°
2026-05-06 15:20 49.97356 12.62910 34777 ft 463 kts 116°
2026-05-06 15:20 49.95089 12.72276 34776 ft 463 kts 116°
2026-05-06 15:21 49.92808 12.81624 34769 ft 463 kts 117°
2026-05-06 15:21 49.90517 12.90967 34734 ft 464 kts 117°
2026-05-06 15:22 49.88213 13.00315 34747 ft 464 kts 117°
2026-05-06 15:22 49.85904 13.09662 34750 ft 465 kts 117°
2026-05-06 15:23 49.83590 13.19007 34771 ft 465 kts 117°
2026-05-06 15:23 49.81265 13.28343 34778 ft 465 kts 117°
2026-05-06 15:24 49.78929 13.37674 34779 ft 465 kts 117°
2026-05-06 15:24 49.76593 13.46995 34781 ft 465 kts 117°
2026-05-06 15:25 49.74260 13.56236 34779 ft 464 kts 118°
2026-05-06 15:25 49.71906 13.65526 34754 ft 465 kts 118°
2026-05-06 15:26 49.69543 13.74822 34748 ft 465 kts 118°
2026-05-06 15:26 49.67175 13.84118 34750 ft 465 kts 118°
2026-05-06 15:27 49.64794 13.93403 34757 ft 465 kts 118°
2026-05-06 15:27 49.62404 14.02685 34760 ft 465 kts 118°
2026-05-06 15:28 49.60001 14.11953 34735 ft 466 kts 118°
2026-05-06 15:28 49.57598 14.21230 34742 ft 466 kts 118°
2026-05-06 15:29 49.55187 14.30505 34747 ft 466 kts 118°
2026-05-06 15:29 49.52763 14.39769 34751 ft 467 kts 118°
2026-05-06 15:30 49.50325 14.49022 34706 ft 467 kts 119°
2026-05-06 15:30 49.47882 14.58272 34720 ft 467 kts 119°
2026-05-06 15:31 49.45431 14.67519 34738 ft 467 kts 119°
2026-05-06 15:31 49.42972 14.76760 34745 ft 467 kts 119°
2026-05-06 15:32 49.39297 14.90546 34713 ft 467 kts 120°
2026-05-06 15:32 49.36816 14.99774 34727 ft 468 kts 120°
2026-05-06 15:33 49.34329 15.09003 34735 ft 468 kts 120°
2026-05-06 15:33 49.31833 15.18237 34742 ft 469 kts 120°
2026-05-06 15:34 49.29327 15.27458 34747 ft 469 kts 120°
2026-05-06 15:34 49.26808 15.36682 34722 ft 470 kts 120°
2026-05-06 15:35 49.24281 15.45903 34732 ft 470 kts 120°
2026-05-06 15:35 49.21744 15.55136 34739 ft 471 kts 120°
2026-05-06 15:36 49.19198 15.64361 34743 ft 471 kts 120°
2026-05-06 15:36 49.16644 15.73581 34718 ft 471 kts 120°
2026-05-06 15:37 49.14080 15.82809 34725 ft 472 kts 120°
2026-05-06 15:37 49.11505 15.92038 34743 ft 472 kts 120°
2026-05-06 15:38 49.08919 16.01255 34782 ft 472 kts 120°
2026-05-06 15:38 49.06323 16.10457 34760 ft 472 kts 120°
2026-05-06 15:39 49.03718 16.19658 34751 ft 473 kts 120°
2026-05-06 15:39 49.01126 16.28794 34757 ft 473 kts 120°
2026-05-06 15:40 48.98513 16.37990 34760 ft 473 kts 120°
2026-05-06 15:40 48.95892 16.47169 34748 ft 473 kts 120°
2026-05-06 15:41 48.93257 16.56346 34756 ft 474 kts 120°
2026-05-06 15:41 48.90616 16.65527 34758 ft 474 kts 120°
2026-05-06 15:42 48.87961 16.74700 34768 ft 474 kts 120°
2026-05-06 15:42 48.85295 16.83868 34770 ft 474 kts 120°
2026-05-06 15:43 48.82622 16.93025 34755 ft 475 kts 119°
2026-05-06 15:43 48.79939 17.02192 34772 ft 476 kts 119°
2026-05-06 15:44 48.76669 17.10754 34773 ft 463 kts 135°
2026-05-06 15:44 48.72529 17.18185 34789 ft 462 kts 137°
2026-05-06 15:45 48.68376 17.25602 34791 ft 462 kts 137°
2026-05-06 15:45 48.64248 17.32966 34802 ft 462 kts 137°
2026-05-06 15:46 48.60088 17.40363 34815 ft 461 kts 137°
2026-05-06 15:46 48.55931 17.47741 34822 ft 461 kts 137°
2026-05-06 15:47 48.51766 17.55101 34803 ft 461 kts 137°
2026-05-06 15:47 48.47594 17.62442 34798 ft 461 kts 137°
2026-05-06 15:48 48.43407 17.69786 34813 ft 462 kts 137°
2026-05-06 15:48 48.39210 17.77125 34825 ft 463 kts 137°
2026-05-06 15:49 48.35007 17.84474 34827 ft 463 kts 137°
2026-05-06 15:49 48.30800 17.91814 34816 ft 464 kts 136°
2026-05-06 15:50 48.26579 17.99142 34826 ft 464 kts 136°
2026-05-06 15:50 48.22350 18.06462 34831 ft 464 kts 136°
2026-05-06 15:51 48.18144 18.13732 34846 ft 465 kts 136°
2026-05-06 15:51 48.13907 18.21035 34836 ft 465 kts 136°
2026-05-06 15:52 48.09659 18.28329 34842 ft 465 kts 136°
2026-05-06 15:52 48.05403 18.35624 34851 ft 465 kts 136°
2026-05-06 15:53 48.01142 18.42904 34855 ft 465 kts 136°
2026-05-06 15:53 47.96879 18.50170 34871 ft 465 kts 136°
2026-05-06 15:54 47.92612 18.57419 34862 ft 465 kts 136°
2026-05-06 15:54 47.88374 18.64599 34878 ft 465 kts 136°
2026-05-06 15:55 47.84102 18.71821 34885 ft 465 kts 136°
2026-05-06 15:55 47.79828 18.79033 34892 ft 464 kts 136°
2026-05-06 15:56 47.75551 18.86228 34878 ft 464 kts 136°
2026-05-06 15:56 47.71265 18.93403 34871 ft 465 kts 136°
2026-05-06 15:57 47.66991 19.00607 34885 ft 466 kts 134°
2026-05-06 15:57 47.62907 19.08089 34896 ft 467 kts 132°
2026-05-06 15:58 47.58906 19.15669 34904 ft 467 kts 132°
2026-05-06 15:58 47.54868 19.23187 34892 ft 467 kts 133°
2026-05-06 15:59 47.50777 19.30641 34893 ft 467 kts 133°
2026-05-06 15:59 47.46665 19.38072 34895 ft 467 kts 133°
2026-05-06 16:00 47.42558 19.45506 34892 ft 467 kts 133°
2026-05-06 16:00 47.38459 19.52953 34876 ft 468 kts 133°
2026-05-06 16:01 47.34354 19.60402 34884 ft 468 kts 133°
2026-05-06 16:01 47.30255 19.67792 34891 ft 469 kts 133°
2026-05-06 16:02 47.26112 19.75227 34899 ft 469 kts 133°
2026-05-06 16:02 47.21964 19.82648 34887 ft 470 kts 133°
2026-05-06 16:03 47.17810 19.90073 34900 ft 470 kts 133°
2026-05-06 16:03 47.13651 19.97499 34901 ft 471 kts 133°
2026-05-06 16:04 47.09480 20.04922 34916 ft 471 kts 133°
2026-05-06 16:04 47.05301 20.12326 34915 ft 471 kts 133°
2026-05-06 16:05 47.01116 20.19720 34914 ft 471 kts 133°
2026-05-06 16:05 46.96933 20.27114 34917 ft 472 kts 133°
2026-05-06 16:06 46.92739 20.34497 34929 ft 472 kts 133°
2026-05-06 16:06 46.88534 20.41858 34927 ft 472 kts 133°
2026-05-06 16:07 46.84323 20.49209 34931 ft 472 kts 133°
2026-05-06 16:07 46.80115 20.56552 34933 ft 472 kts 133°
2026-05-06 16:08 46.75903 20.63895 34909 ft 472 kts 133°
2026-05-06 16:08 46.71681 20.71239 34915 ft 473 kts 133°
2026-05-06 16:09 46.67469 20.78528 34904 ft 474 kts 133°
2026-05-06 16:09 46.63214 20.85865 34913 ft 475 kts 133°
2026-05-06 16:10 46.58950 20.93199 34918 ft 475 kts 133°
2026-05-06 16:10 46.55369 20.99335 34928 ft 475 kts 133°
2026-05-06 16:11 46.51093 21.06663 34925 ft 476 kts 133°
2026-05-06 16:11 46.46842 21.13941 34927 ft 477 kts 133°
2026-05-06 16:12 46.42546 21.21271 34927 ft 477 kts 133°
2026-05-06 16:12 46.38782 21.29197 34940 ft 480 kts 122°
2026-05-06 16:13 46.35467 21.37592 34939 ft 480 kts 121°
2026-05-06 16:13 46.32154 21.45994 34949 ft 481 kts 121°
2026-05-06 16:14 46.28830 21.54387 34953 ft 481 kts 121°
2026-05-06 16:14 46.25495 21.62768 34954 ft 481 kts 121°
2026-05-06 16:15 46.22151 21.71137 34946 ft 481 kts 121°
2026-05-06 16:15 46.18804 21.79503 34947 ft 481 kts 121°
2026-05-06 16:16 46.15449 21.87868 34954 ft 481 kts 121°
2026-05-06 16:16 46.12087 21.96216 34963 ft 482 kts 121°
2026-05-06 16:17 46.08716 22.04560 34967 ft 482 kts 121°
2026-05-06 16:17 46.05341 22.12903 34962 ft 482 kts 121°
2026-05-06 16:18 46.01953 22.21236 34950 ft 482 kts 121°
2026-05-06 16:18 45.98556 22.29556 34962 ft 482 kts 121°
2026-05-06 16:19 45.95161 22.37868 34972 ft 482 kts 121°
2026-05-06 16:19 45.91764 22.46163 34976 ft 482 kts 121°
2026-05-06 16:20 45.88358 22.54439 34982 ft 481 kts 121°
2026-05-06 16:20 45.84949 22.62706 34985 ft 481 kts 121°
2026-05-06 16:21 45.81531 22.70954 34983 ft 481 kts 121°
2026-05-06 16:21 45.78110 22.79190 34973 ft 481 kts 121°
2026-05-06 16:22 45.74717 22.87358 34968 ft 481 kts 121°
2026-05-06 16:22 45.71296 22.95574 34975 ft 481 kts 121°
2026-05-06 16:23 45.67864 23.03778 34987 ft 480 kts 121°
2026-05-06 16:23 45.64428 23.11958 34997 ft 480 kts 121°
2026-05-06 16:24 45.60983 23.20120 35005 ft 479 kts 122°
2026-05-06 16:24 45.57537 23.28266 35012 ft 479 kts 121°
2026-05-06 16:25 45.54091 23.36403 35013 ft 479 kts 121°
2026-05-06 16:25 45.50648 23.44524 35023 ft 479 kts 121°
2026-05-06 16:26 45.47193 23.52633 34998 ft 481 kts 121°
2026-05-06 16:26 45.45438 23.56736 34477 ft 488 kts 121°
2026-05-06 16:26 45.43661 23.60886 33699 ft 492 kts 122°
2026-05-06 16:27 45.41879 23.65055 32950 ft 492 kts 122°
2026-05-06 16:27 45.40108 23.69195 32442 ft 488 kts 122°
2026-05-06 16:27 45.38340 23.73306 31882 ft 486 kts 122°
2026-05-06 16:27 45.36578 23.77393 31327 ft 483 kts 122°
2026-05-06 16:28 45.34826 23.81452 30771 ft 481 kts 122°
2026-05-06 16:28 45.33081 23.85488 30211 ft 478 kts 122°
2026-05-06 16:28 45.31347 23.89507 29601 ft 476 kts 122°
2026-05-06 16:28 45.29628 23.93493 29066 ft 470 kts 122°
2026-05-06 16:29 45.27929 23.97434 28525 ft 466 kts 122°
2026-05-06 16:29 45.26242 24.01331 27985 ft 461 kts 122°
2026-05-06 16:29 45.24572 24.05179 27475 ft 456 kts 122°
2026-05-06 16:29 45.22915 24.08986 26980 ft 451 kts 122°
2026-05-06 16:30 45.21273 24.12751 26460 ft 447 kts 122°
2026-05-06 16:30 45.20194 24.15225 26141 ft 443 kts 122°
2026-05-06 16:30 45.18038 24.20159 25511 ft 437 kts 122°
2026-05-06 16:30 45.16447 24.23793 25061 ft 432 kts 122°
2026-05-06 16:31 45.14868 24.27389 24603 ft 427 kts 122°
2026-05-06 16:31 45.13306 24.30943 24153 ft 423 kts 122°
2026-05-06 16:31 45.11758 24.34465 23703 ft 420 kts 122°
2026-05-06 16:31 45.10245 24.37909 23208 ft 416 kts 122°
2026-05-06 16:32 45.08724 24.41372 22744 ft 412 kts 122°
2026-05-06 16:32 45.07217 24.44802 22291 ft 409 kts 122°
2026-05-06 16:32 45.05722 24.48202 21825 ft 406 kts 122°
2026-05-06 16:32 45.04230 24.51581 21353 ft 403 kts 122°
2026-05-06 16:33 45.02749 24.54930 20875 ft 401 kts 122°
2026-05-06 16:33 45.01276 24.58258 20403 ft 398 kts 122°
2026-05-06 16:33 44.99811 24.61563 19906 ft 396 kts 122°
2026-05-06 16:34 44.96852 24.68229 18531 ft 403 kts 122°
2026-05-06 16:34 44.95368 24.71567 18044 ft 400 kts 123°
2026-05-06 16:34 44.93892 24.74887 17506 ft 397 kts 123°
2026-05-06 16:34 44.92434 24.78165 16987 ft 393 kts 122°
2026-05-06 16:35 44.91044 24.81461 16466 ft 389 kts 118°
2026-05-06 16:35 44.89793 24.84825 15959 ft 385 kts 117°
2026-05-06 16:35 44.88595 24.88185 15462 ft 381 kts 117°
2026-05-06 16:35 44.87429 24.91522 14972 ft 378 kts 116°
2026-05-06 16:36 44.86279 24.94829 14490 ft 374 kts 116°
2026-05-06 16:36 44.85135 24.98099 14011 ft 370 kts 117°
2026-05-06 16:36 44.83994 25.01336 13524 ft 367 kts 117°
2026-05-06 16:36 44.82856 25.04532 12982 ft 364 kts 117°
2026-05-06 16:37 44.81722 25.07697 12472 ft 360 kts 117°
2026-05-06 16:37 44.80596 25.10827 11990 ft 356 kts 117°
2026-05-06 16:37 44.79495 25.13891 11723 ft 346 kts 117°
2026-05-06 16:37 44.78429 25.16866 11473 ft 336 kts 116°
2026-05-06 16:38 44.77390 25.19766 11214 ft 327 kts 116°
2026-05-06 16:38 44.76378 25.22587 11031 ft 318 kts 116°
2026-05-06 16:38 44.75398 25.25318 10885 ft 307 kts 117°
2026-05-06 16:38 44.74446 25.27965 10652 ft 301 kts 117°
2026-05-06 16:39 44.73507 25.30573 10346 ft 298 kts 117°
2026-05-06 16:39 44.72573 25.33160 10012 ft 296 kts 117°
2026-05-06 16:39 44.71646 25.35728 9654 ft 294 kts 117°
2026-05-06 16:39 44.70724 25.38286 9270 ft 293 kts 117°
2026-05-06 16:40 44.69804 25.40836 8891 ft 292 kts 116°
2026-05-06 16:40 44.68885 25.43376 8526 ft 291 kts 116°
2026-05-06 16:40 44.67966 25.45907 8192 ft 289 kts 116°
2026-05-06 16:40 44.67055 25.48415 7833 ft 288 kts 116°
2026-05-06 16:41 44.66146 25.50919 7472 ft 287 kts 116°
2026-05-06 16:41 44.65251 25.53383 7125 ft 287 kts 116°
2026-05-06 16:41 44.64337 25.55902 6792 ft 285 kts 116°
2026-05-06 16:41 44.63450 25.58338 6474 ft 283 kts 117°
2026-05-06 16:42 44.62554 25.60792 6114 ft 282 kts 117°
2026-05-06 16:42 44.61661 25.63237 5774 ft 281 kts 117°
2026-05-06 16:42 44.60773 25.65670 5438 ft 279 kts 117°
2026-05-06 16:42 44.59894 25.68077 5145 ft 276 kts 117°
2026-05-06 16:43 44.59023 25.70456 4844 ft 273 kts 117°
2026-05-06 16:43 44.58162 25.72813 4518 ft 271 kts 117°
2026-05-06 16:43 44.57309 25.75149 4279 ft 265 kts 117°
2026-05-06 16:43 44.56485 25.77405 4152 ft 255 kts 117°
2026-05-06 16:44 44.55695 25.79561 3927 ft 243 kts 118°
2026-05-06 16:44 44.54955 25.81624 3670 ft 231 kts 113°
2026-05-06 16:44 44.54643 25.83758 3365 ft 220 kts 91°
2026-05-06 16:44 44.54788 25.85815 3091 ft 202 kts 86°
2026-05-06 16:45 44.54930 25.87693 2813 ft 186 kts 86°
2026-05-06 16:45 44.55063 25.89455 2587 ft 178 kts 86°
2026-05-06 16:45 44.55192 25.91134 2378 ft 169 kts 85°
2026-05-06 16:45 44.55316 25.92740 2182 ft 164 kts 85°
2026-05-06 16:46 44.55437 25.94305 1987 ft 160 kts 86°
2026-05-06 16:46 44.55557 25.95856 1799 ft 160 kts 86°
2026-05-06 16:46 44.55676 25.97400 1610 ft 159 kts 86°
2026-05-06 16:46 44.55794 25.98926 1440 ft 157 kts 85°
2026-05-06 16:47 44.55911 26.00447 1243 ft 158 kts 85°
2026-05-06 16:47 44.56027 26.01956 1066 ft 153 kts 86°
2026-05-06 16:47 44.56141 26.03435 889 ft 153 kts 85°
2026-05-06 16:47 44.56254 26.04904 715 ft 151 kts 86°
2026-05-06 16:48 44.56367 26.06367 537 ft 150 kts 85°
2026-05-06 16:48 44.56476 26.07814 364 ft 149 kts 85°
2026-05-06 16:48 44.56574 26.09142 323 ft 120 kts 84°
2026-05-06 16:48 44.56645 26.10064 324 ft 70 kts 84°
2026-05-06 16:49 44.56681 26.10540 323 ft 36 kts 83°
2026-05-06 16:49 44.56717 26.10754 323 ft 13 kts 36°
2026-05-06 16:49 44.56816 26.10758 321 ft 15 kts 353°
2026-05-06 16:49 44.56925 26.10741 322 ft 16 kts 353°
2026-05-06 16:50 44.57021 26.10667 322 ft 17 kts 307°
2026-05-06 16:50 44.57066 26.10512 322 ft 18 kts 270°
2026-05-06 16:50 44.57054 26.10334 322 ft 19 kts 263°
2026-05-06 16:50 44.57045 26.10210 322 ft 20 kts 264°
2026-05-06 16:51 44.57024 26.09942 322 ft 21 kts 264°
2026-05-06 16:51 44.57007 26.09731 322 ft 22 kts 263°
2026-05-06 16:51 44.56990 26.09510 322 ft 23 kts 264°
2026-05-06 16:51 44.56973 26.09283 322 ft 24 kts 264°
2026-05-06 16:52 44.56956 26.09064 322 ft 21 kts 264°
2026-05-06 16:52 44.56941 26.08870 322 ft 19 kts 264°
2026-05-06 16:52 44.56927 26.08701 322 ft 16 kts 263°
2026-05-06 16:52 44.56911 26.08557 323 ft 14 kts 252°
2026-05-06 16:53 44.56900 26.08440 323 ft 11 kts 288°
2026-05-06 16:53 44.56955 26.08390 323 ft 9 kts 338°
2026-05-06 16:53 44.56990 26.08342 323 ft 6 kts 309°
2026-05-06 16:53 44.57014 26.08300 323 ft 5 kts 309°
2026-05-06 16:54 44.57035 26.08263 322 ft 4 kts 309°
2026-05-06 16:54 44.57043 26.08249 323 ft 0 kts 308°